Year,Month,Day,Hour,Minute,Value (Times are PST for temperature in C)
2016,03,19,00,00,4.80
2016,03,19,00,01,4.80
2016,03,19,00,02,4.80
2016,03,19,00,03,4.80
2016,03,19,00,04,4.80
2016,03,19,00,05,4.80
2016,03,19,00,06,4.80
2016,03,19,00,07,4.80
2016,03,19,00,08,4.80
2016,03,19,00,09,4.80
2016,03,19,00,10,4.80
2016,03,19,00,11,4.80
2016,03,19,00,12,4.80
2016,03,19,00,13,4.80
2016,03,19,00,14,4.80
2016,03,19,00,15,4.80
2016,03,19,00,16,4.80
2016,03,19,00,17,4.80
2016,03,19,00,18,4.80
2016,03,19,00,19,4.80
2016,03,19,00,20,4.80
2016,03,19,00,21,4.80
2016,03,19,00,22,4.80
2016,03,19,00,23,4.90
2016,03,19,00,24,4.90
2016,03,19,00,25,4.90
2016,03,19,00,26,4.90
2016,03,19,00,27,4.90
2016,03,19,00,28,4.90
2016,03,19,00,29,4.90
2016,03,19,00,30,4.90
2016,03,19,00,31,4.90
2016,03,19,00,32,4.90
2016,03,19,00,33,5.00
2016,03,19,00,34,5.00
2016,03,19,00,35,5.00
2016,03,19,00,36,5.00
2016,03,19,00,37,5.00
2016,03,19,00,38,5.10
2016,03,19,00,39,5.10
2016,03,19,00,40,5.10
2016,03,19,00,41,5.10
2016,03,19,00,42,5.10
2016,03,19,00,43,5.10
2016,03,19,00,44,5.10
2016,03,19,00,45,5.10
2016,03,19,00,46,5.10
2016,03,19,00,47,5.10
2016,03,19,00,48,5.10
2016,03,19,00,49,5.10
2016,03,19,00,50,5.10
2016,03,19,00,51,5.10
2016,03,19,00,52,5.10
2016,03,19,00,53,5.10
2016,03,19,00,54,5.10
2016,03,19,00,55,5.10
2016,03,19,00,56,5.10
2016,03,19,00,57,5.00
2016,03,19,00,58,5.00
2016,03,19,00,59,5.00
2016,03,19,01,00,5.00
2016,03,19,01,01,5.00
2016,03,19,01,02,5.00
2016,03,19,01,03,5.00
2016,03,19,01,04,5.00
2016,03,19,01,05,5.00
2016,03,19,01,06,5.00
2016,03,19,01,07,5.00
2016,03,19,01,08,5.00
2016,03,19,01,09,5.00
2016,03,19,01,10,5.00
2016,03,19,01,11,5.00
2016,03,19,01,12,5.00
2016,03,19,01,13,5.00
2016,03,19,01,14,4.90
2016,03,19,01,15,5.00
2016,03,19,01,16,4.90
2016,03,19,01,17,4.90
2016,03,19,01,18,4.90
2016,03,19,01,19,4.90
2016,03,19,01,20,4.90
2016,03,19,01,21,4.90
2016,03,19,01,22,4.90
2016,03,19,01,23,5.00
2016,03,19,01,24,5.00
2016,03,19,01,25,5.00
2016,03,19,01,26,5.00
2016,03,19,01,27,5.00
2016,03,19,01,28,5.00
2016,03,19,01,29,5.00
2016,03,19,01,30,5.00
2016,03,19,01,31,5.00
2016,03,19,01,32,4.90
2016,03,19,01,33,4.90
2016,03,19,01,34,4.90
2016,03,19,01,35,4.90
2016,03,19,01,36,4.90
2016,03,19,01,37,4.90
2016,03,19,01,38,4.90
2016,03,19,01,39,4.90
2016,03,19,01,40,4.90
2016,03,19,01,41,4.90
2016,03,19,01,42,4.90
2016,03,19,01,43,4.90
2016,03,19,01,44,4.90
2016,03,19,01,45,4.90
2016,03,19,01,46,4.90
2016,03,19,01,47,4.90
2016,03,19,01,48,4.90
2016,03,19,01,49,4.90
2016,03,19,01,50,4.90
2016,03,19,01,51,4.90
2016,03,19,01,52,4.90
2016,03,19,01,53,4.90
2016,03,19,01,54,4.90
2016,03,19,01,55,4.90
2016,03,19,01,56,4.90
2016,03,19,01,57,4.90
2016,03,19,01,58,4.90
2016,03,19,01,59,4.90
2016,03,19,02,00,4.90
2016,03,19,02,01,4.90
2016,03,19,02,02,4.90
2016,03,19,02,03,4.90
2016,03,19,02,04,4.90
2016,03,19,02,05,4.90
2016,03,19,02,06,4.90
2016,03,19,02,07,4.90
2016,03,19,02,08,4.90
2016,03,19,02,09,4.90
2016,03,19,02,10,4.90
2016,03,19,02,11,4.90
2016,03,19,02,12,4.90
2016,03,19,02,13,4.90
2016,03,19,02,14,4.90
2016,03,19,02,15,4.90
2016,03,19,02,16,4.90
2016,03,19,02,17,4.90
2016,03,19,02,18,4.90
2016,03,19,02,19,4.90
2016,03,19,02,20,4.90
2016,03,19,02,21,4.90
2016,03,19,02,22,4.90
2016,03,19,02,23,4.90
2016,03,19,02,24,4.90
2016,03,19,02,25,4.90
2016,03,19,02,26,4.90
2016,03,19,02,27,4.90
2016,03,19,02,28,4.90
2016,03,19,02,29,4.90
2016,03,19,02,30,4.90
2016,03,19,02,31,4.90
2016,03,19,02,32,4.90
2016,03,19,02,33,4.90
2016,03,19,02,34,4.90
2016,03,19,02,35,4.90
2016,03,19,02,36,4.90
2016,03,19,02,37,4.90
2016,03,19,02,38,4.90
2016,03,19,02,39,4.90
2016,03,19,02,40,4.90
2016,03,19,02,41,4.90
2016,03,19,02,42,4.90
2016,03,19,02,43,4.90
2016,03,19,02,44,4.90
2016,03,19,02,45,4.90
2016,03,19,02,46,4.90
2016,03,19,02,47,4.90
2016,03,19,02,48,4.90
2016,03,19,02,49,4.90
2016,03,19,02,50,4.90
2016,03,19,02,51,4.90
2016,03,19,02,52,4.90
2016,03,19,02,53,4.90
2016,03,19,02,54,5.00
2016,03,19,02,55,5.00
2016,03,19,02,56,5.00
2016,03,19,02,57,5.00
2016,03,19,02,58,5.00
2016,03,19,02,59,5.00
2016,03,19,03,00,5.00
2016,03,19,03,01,5.00
2016,03,19,03,02,5.00
2016,03,19,03,03,5.00
2016,03,19,03,04,5.00
2016,03,19,03,05,5.00
2016,03,19,03,06,5.00
2016,03,19,03,07,5.00
2016,03,19,03,08,5.10
2016,03,19,03,09,5.10
2016,03,19,03,10,5.10
2016,03,19,03,11,5.10
2016,03,19,03,12,5.10
2016,03,19,03,13,5.10
2016,03,19,03,14,5.10
2016,03,19,03,15,5.10
2016,03,19,03,16,5.10
2016,03,19,03,17,5.10
2016,03,19,03,18,5.10
2016,03,19,03,19,5.10
2016,03,19,03,20,5.10
2016,03,19,03,21,5.10
2016,03,19,03,22,5.10
2016,03,19,03,23,5.10
2016,03,19,03,24,5.10
2016,03,19,03,25,5.10
2016,03,19,03,26,5.10
2016,03,19,03,27,5.10
2016,03,19,03,28,5.10
2016,03,19,03,29,5.10
2016,03,19,03,30,5.10
2016,03,19,03,31,5.10
2016,03,19,03,32,5.10
2016,03,19,03,33,5.10
2016,03,19,03,34,5.10
2016,03,19,03,35,5.10
2016,03,19,03,36,5.10
2016,03,19,03,37,5.10
2016,03,19,03,38,5.10
2016,03,19,03,39,5.10
2016,03,19,03,40,5.10
2016,03,19,03,41,5.10
2016,03,19,03,42,5.10
2016,03,19,03,43,5.10
2016,03,19,03,44,5.10
2016,03,19,03,45,5.10
2016,03,19,03,49,5.10
2016,03,19,03,50,5.10
2016,03,19,03,51,5.10
2016,03,19,03,52,5.10
2016,03,19,03,53,5.10
2016,03,19,03,54,5.10
2016,03,19,03,55,5.10
2016,03,19,03,56,5.10
2016,03,19,03,57,5.10
2016,03,19,03,58,5.10
2016,03,19,03,59,5.10
2016,03,19,04,00,5.10
2016,03,19,04,01,5.10
2016,03,19,04,02,5.00
2016,03,19,04,03,5.00
2016,03,19,04,04,5.00
2016,03,19,04,05,5.00
2016,03,19,04,06,5.00
2016,03,19,04,07,5.00
2016,03,19,04,08,5.00
2016,03,19,04,09,5.00
2016,03,19,04,10,5.00
2016,03,19,04,11,5.00
2016,03,19,04,12,5.00
2016,03,19,04,13,5.00
2016,03,19,04,14,5.00
2016,03,19,04,15,5.00
2016,03,19,04,16,4.90
2016,03,19,04,17,4.90
2016,03,19,04,18,4.90
2016,03,19,04,19,4.90
2016,03,19,04,20,4.90
2016,03,19,04,21,4.90
2016,03,19,04,22,4.90
2016,03,19,04,23,4.90
2016,03,19,04,24,4.90
2016,03,19,04,25,4.90
2016,03,19,04,26,4.90
2016,03,19,04,27,4.80
2016,03,19,04,28,4.80
2016,03,19,04,29,4.80
2016,03,19,04,30,4.80
2016,03,19,04,31,4.80
2016,03,19,04,32,4.80
2016,03,19,04,33,4.80
2016,03,19,04,34,4.80
2016,03,19,04,35,4.80
2016,03,19,04,36,4.70
2016,03,19,04,37,4.70
2016,03,19,04,38,4.70
2016,03,19,04,39,4.70
2016,03,19,04,40,4.70
2016,03,19,04,41,4.70
2016,03,19,04,42,4.60
2016,03,19,04,43,4.60
2016,03,19,04,44,4.60
2016,03,19,04,45,4.60
2016,03,19,04,46,4.60
2016,03,19,04,47,4.60
2016,03,19,04,48,4.60
2016,03,19,04,49,4.60
2016,03,19,04,50,4.60
2016,03,19,04,51,4.50
2016,03,19,04,52,4.50
2016,03,19,04,53,4.50
2016,03,19,04,54,4.50
2016,03,19,04,55,4.50
2016,03,19,04,56,4.50
2016,03,19,04,57,4.40
2016,03,19,04,58,4.40
2016,03,19,04,59,4.40
2016,03,19,05,00,4.40
2016,03,19,05,01,4.40
2016,03,19,05,02,4.40
2016,03,19,05,03,4.40
2016,03,19,05,04,4.40
2016,03,19,05,05,4.30
2016,03,19,05,06,4.30
2016,03,19,05,07,4.30
2016,03,19,05,08,4.30
2016,03,19,05,09,4.30
2016,03,19,05,10,4.30
2016,03,19,05,11,4.30
2016,03,19,05,12,4.30
2016,03,19,05,13,4.30
2016,03,19,05,14,4.30
2016,03,19,05,15,4.30
2016,03,19,05,16,4.30
2016,03,19,05,17,4.30
2016,03,19,05,18,4.30
2016,03,19,05,19,4.30
2016,03,19,05,20,4.30
2016,03,19,05,21,4.30
2016,03,19,05,22,4.30
2016,03,19,05,23,4.30
2016,03,19,05,24,4.30
2016,03,19,05,25,4.30
2016,03,19,05,26,4.30
2016,03,19,05,27,4.30
2016,03,19,05,28,4.30
2016,03,19,05,29,4.30
2016,03,19,05,30,4.30
2016,03,19,05,31,4.20
2016,03,19,05,32,4.20
2016,03,19,05,33,4.20
2016,03,19,05,34,4.20
2016,03,19,05,35,4.20
2016,03,19,05,36,4.20
2016,03,19,05,37,4.20
2016,03,19,05,38,4.20
2016,03,19,05,39,4.20
2016,03,19,05,40,4.20
2016,03,19,05,41,4.20
2016,03,19,05,42,4.20
2016,03,19,05,43,4.20
2016,03,19,05,44,4.20
2016,03,19,05,45,4.20
2016,03,19,05,46,4.20
2016,03,19,05,47,4.10
2016,03,19,05,48,4.10
2016,03,19,05,49,4.10
2016,03,19,05,50,4.10
2016,03,19,05,51,4.10
2016,03,19,05,52,4.10
2016,03,19,05,53,4.10
2016,03,19,05,54,4.10
2016,03,19,05,55,4.10
2016,03,19,05,56,4.10
2016,03,19,05,57,4.10
2016,03,19,05,58,4.10
2016,03,19,05,59,4.10
2016,03,19,06,00,4.10
2016,03,19,06,01,4.10
2016,03,19,06,02,4.10
2016,03,19,06,03,4.10
2016,03,19,06,04,4.10
2016,03,19,06,05,4.10
2016,03,19,06,06,4.10
2016,03,19,06,07,4.10
2016,03,19,06,08,4.10
2016,03,19,06,09,4.10
2016,03,19,06,10,4.10
2016,03,19,06,11,4.10
2016,03,19,06,12,4.10
2016,03,19,06,13,4.10
2016,03,19,06,14,4.10
2016,03,19,06,15,4.10
2016,03,19,06,16,4.10
2016,03,19,06,17,4.10
2016,03,19,06,18,4.00
2016,03,19,06,19,4.10
2016,03,19,06,20,4.10
2016,03,19,06,21,4.00
2016,03,19,06,22,4.00
2016,03,19,06,23,4.00
2016,03,19,06,24,4.00
2016,03,19,06,25,4.00
2016,03,19,06,26,4.00
2016,03,19,06,27,4.00
2016,03,19,06,28,4.00
2016,03,19,06,29,4.00
2016,03,19,06,30,4.00
2016,03,19,06,31,4.00
2016,03,19,06,32,4.00
2016,03,19,06,33,4.00
2016,03,19,06,34,4.00
2016,03,19,06,35,4.00
2016,03,19,06,36,4.00
2016,03,19,06,37,4.00
2016,03,19,06,38,4.10
2016,03,19,06,39,4.10
2016,03,19,06,40,4.10
2016,03,19,06,41,4.10
2016,03,19,06,42,4.10
2016,03,19,06,43,4.10
2016,03,19,06,44,4.00
2016,03,19,06,45,4.00
2016,03,19,06,46,4.00
2016,03,19,06,47,4.00
2016,03,19,06,48,4.00
2016,03,19,06,49,4.00
2016,03,19,06,50,4.00
2016,03,19,06,51,3.90
2016,03,19,06,52,3.90
2016,03,19,06,53,3.90
2016,03,19,06,54,3.90
2016,03,19,06,55,3.90
2016,03,19,06,56,3.90
2016,03,19,06,57,3.90
2016,03,19,06,58,3.90
2016,03,19,06,59,3.90
2016,03,19,07,00,3.90
2016,03,19,07,01,3.90
2016,03,19,07,02,3.80
2016,03,19,07,03,3.80
2016,03,19,07,04,3.80
2016,03,19,07,05,3.80
2016,03,19,07,06,3.80
2016,03,19,07,07,3.80
2016,03,19,07,08,3.80
2016,03,19,07,09,3.80
2016,03,19,07,10,3.80
2016,03,19,07,11,3.80
2016,03,19,07,12,3.80
2016,03,19,07,13,3.80
2016,03,19,07,14,3.80
2016,03,19,07,15,3.80
2016,03,19,07,16,3.80
2016,03,19,07,17,3.80
2016,03,19,07,18,3.80
2016,03,19,07,19,3.80
2016,03,19,07,20,3.80
2016,03,19,07,21,3.80
2016,03,19,07,22,3.80
2016,03,19,07,23,3.80
2016,03,19,07,24,3.80
2016,03,19,07,25,3.80
2016,03,19,07,26,3.80
2016,03,19,07,27,3.80
2016,03,19,07,28,3.80
2016,03,19,07,29,3.80
2016,03,19,07,30,3.80
2016,03,19,07,31,3.80
2016,03,19,07,32,3.80
2016,03,19,07,33,3.80
2016,03,19,07,34,3.80
2016,03,19,07,35,3.80
2016,03,19,07,36,3.80
2016,03,19,07,37,3.80
2016,03,19,07,38,3.80
2016,03,19,07,39,3.90
2016,03,19,07,40,3.80
2016,03,19,07,41,3.80
2016,03,19,07,42,3.80
2016,03,19,07,43,3.80
2016,03,19,07,44,3.80
2016,03,19,07,45,3.90
2016,03,19,07,46,3.90
2016,03,19,07,47,3.90
2016,03,19,07,48,3.90
2016,03,19,07,49,3.90
2016,03,19,07,50,3.90
2016,03,19,07,51,3.90
2016,03,19,07,52,3.90
2016,03,19,07,53,3.90
2016,03,19,07,54,3.90
2016,03,19,07,55,3.90
2016,03,19,07,56,3.90
2016,03,19,07,57,3.90
2016,03,19,07,58,3.90
2016,03,19,07,59,3.90
2016,03,19,08,00,3.90
2016,03,19,08,01,3.90
2016,03,19,08,02,4.00
2016,03,19,08,03,4.00
2016,03,19,08,04,4.00
2016,03,19,08,05,4.00
2016,03,19,08,06,4.10
2016,03,19,08,07,4.10
2016,03,19,08,08,4.10
2016,03,19,08,09,4.10
2016,03,19,08,10,4.10
2016,03,19,08,11,4.10
2016,03,19,08,12,4.10
2016,03,19,08,13,4.10
2016,03,19,08,14,4.10
2016,03,19,08,15,4.20
2016,03,19,08,16,4.20
2016,03,19,08,17,4.20
2016,03,19,08,18,4.20
2016,03,19,08,19,4.20
2016,03,19,08,20,4.20
2016,03,19,08,21,4.20
2016,03,19,08,22,4.30
2016,03,19,08,23,4.30
2016,03,19,08,24,4.30
2016,03,19,08,25,4.30
2016,03,19,08,26,4.30
2016,03,19,08,27,4.40
2016,03,19,08,28,4.40
2016,03,19,08,29,4.40
2016,03,19,08,30,4.40
2016,03,19,08,31,4.40
2016,03,19,08,32,4.50
2016,03,19,08,33,4.50
2016,03,19,08,34,4.50
2016,03,19,08,35,4.60
2016,03,19,08,36,4.60
2016,03,19,08,37,4.60
2016,03,19,08,38,4.70
2016,03,19,08,39,4.70
2016,03,19,08,40,4.80
2016,03,19,08,41,4.90
2016,03,19,08,42,4.90
2016,03,19,08,43,5.00
2016,03,19,08,44,5.00
2016,03,19,08,45,5.10
2016,03,19,08,46,5.10
2016,03,19,08,47,5.20
2016,03,19,08,48,5.20
2016,03,19,08,49,5.20
2016,03,19,08,50,5.30
2016,03,19,08,51,5.30
2016,03,19,08,52,5.40
2016,03,19,08,53,5.40
2016,03,19,08,54,5.50
2016,03,19,08,55,5.50
2016,03,19,08,56,5.60
2016,03,19,08,57,5.60
2016,03,19,08,58,5.70
2016,03,19,08,59,5.70
2016,03,19,09,00,5.80
2016,03,19,09,01,5.80
2016,03,19,09,02,5.90
2016,03,19,09,03,5.90
2016,03,19,09,04,6.00
2016,03,19,09,05,6.10
2016,03,19,09,06,6.10
2016,03,19,09,07,6.20
2016,03,19,09,08,6.30
2016,03,19,09,09,6.30
2016,03,19,09,10,6.40
2016,03,19,09,11,6.50
2016,03,19,09,12,6.60
2016,03,19,09,13,6.70
2016,03,19,09,14,6.80
2016,03,19,09,15,6.80
2016,03,19,09,16,6.90
2016,03,19,09,17,7.00
2016,03,19,09,18,7.00
2016,03,19,09,19,7.10
2016,03,19,09,20,7.20
2016,03,19,09,21,7.20
2016,03,19,09,22,7.30
2016,03,19,09,23,7.30
2016,03,19,09,24,7.40
2016,03,19,09,25,7.60
2016,03,19,09,26,7.70
2016,03,19,09,27,7.80
2016,03,19,09,28,7.90
2016,03,19,09,29,8.00
2016,03,19,09,30,8.20
2016,03,19,09,31,8.40
2016,03,19,09,32,8.50
2016,03,19,09,33,8.70
2016,03,19,09,34,8.90
2016,03,19,09,35,9.20
2016,03,19,09,36,9.40
2016,03,19,09,37,9.60
2016,03,19,09,38,9.80
2016,03,19,09,39,10.00
2016,03,19,09,40,10.10
2016,03,19,09,41,10.30
2016,03,19,09,42,10.40
2016,03,19,09,43,10.50
2016,03,19,09,44,10.60
2016,03,19,09,45,10.60
2016,03,19,09,46,10.60
2016,03,19,09,47,10.60
2016,03,19,09,48,10.70
2016,03,19,09,49,10.80
2016,03,19,09,50,10.80
2016,03,19,09,51,10.90
2016,03,19,09,52,11.00
2016,03,19,09,53,11.00
2016,03,19,09,54,11.10
2016,03,19,09,55,11.20
2016,03,19,09,56,11.30
2016,03,19,09,57,11.40
2016,03,19,09,58,11.50
2016,03,19,09,59,11.60
2016,03,19,10,00,11.60
2016,03,19,10,01,11.70
2016,03,19,10,02,11.80
2016,03,19,10,03,11.80
2016,03,19,10,04,11.80
2016,03,19,10,05,11.80
2016,03,19,10,06,11.90
2016,03,19,10,07,11.90
2016,03,19,10,08,11.90
2016,03,19,10,09,11.80
2016,03,19,10,10,11.80
2016,03,19,10,11,11.80
2016,03,19,10,12,11.80
2016,03,19,10,13,11.80
2016,03,19,10,14,11.70
2016,03,19,10,15,11.70
2016,03,19,10,16,11.70
2016,03,19,10,17,11.60
2016,03,19,10,18,11.60
2016,03,19,10,19,11.60
2016,03,19,10,20,11.60
2016,03,19,10,21,11.70
2016,03,19,10,22,11.70
2016,03,19,10,23,11.80
2016,03,19,10,24,11.80
2016,03,19,10,25,11.90
2016,03,19,10,26,11.90
2016,03,19,10,27,12.00
2016,03,19,10,28,12.10
2016,03,19,10,29,12.10
2016,03,19,10,30,12.20
2016,03,19,10,31,12.20
2016,03,19,10,32,12.20
2016,03,19,10,33,12.20
2016,03,19,10,34,12.20
2016,03,19,10,35,12.20
2016,03,19,10,36,12.20
2016,03,19,10,37,12.20
2016,03,19,10,38,12.20
2016,03,19,10,39,12.20
2016,03,19,10,40,12.20
2016,03,19,10,41,12.30
2016,03,19,10,42,12.20
2016,03,19,10,43,12.10
2016,03,19,10,44,12.10
2016,03,19,10,45,12.00
2016,03,19,10,46,11.90
2016,03,19,10,47,11.90
2016,03,19,10,48,11.80
2016,03,19,10,49,11.70
2016,03,19,10,50,11.60
2016,03,19,10,51,11.60
2016,03,19,10,52,11.50
2016,03,19,10,53,11.40
2016,03,19,10,54,11.40
2016,03,19,10,55,11.30
2016,03,19,10,56,11.20
2016,03,19,10,57,11.20
2016,03,19,10,58,11.10
2016,03,19,10,59,11.10
2016,03,19,11,00,11.00
2016,03,19,11,01,11.00
2016,03,19,11,02,11.10
2016,03,19,11,03,11.10
2016,03,19,11,04,11.10
2016,03,19,11,05,11.10
2016,03,19,11,06,11.10
2016,03,19,11,07,11.10
2016,03,19,11,08,11.10
2016,03,19,11,09,11.00
2016,03,19,11,10,11.00
2016,03,19,11,11,11.00
2016,03,19,11,12,11.00
2016,03,19,11,13,11.00
2016,03,19,11,14,11.00
2016,03,19,11,15,11.10
2016,03,19,11,16,11.10
2016,03,19,11,17,11.20
2016,03,19,11,18,11.20
2016,03,19,11,19,11.30
2016,03,19,11,20,11.30
2016,03,19,11,21,11.40
2016,03,19,11,22,11.50
2016,03,19,11,23,11.60
2016,03,19,11,24,11.60
2016,03,19,11,25,11.60
2016,03,19,11,26,11.70
2016,03,19,11,27,11.70
2016,03,19,11,28,11.70
2016,03,19,11,29,11.70
2016,03,19,11,30,11.70
2016,03,19,11,31,11.70
2016,03,19,11,32,11.80
2016,03,19,11,33,11.80
2016,03,19,11,34,11.80
2016,03,19,11,35,11.80
2016,03,19,11,36,11.90
2016,03,19,11,37,12.00
2016,03,19,11,38,12.00
2016,03,19,11,39,12.10
2016,03,19,11,40,12.20
2016,03,19,11,41,12.20
2016,03,19,11,42,12.20
2016,03,19,11,43,12.30
2016,03,19,11,44,12.30
2016,03,19,11,45,12.30
2016,03,19,11,46,12.30
2016,03,19,11,47,12.40
2016,03,19,11,48,12.40
2016,03,19,11,49,12.50
2016,03,19,11,50,12.60
2016,03,19,11,51,12.70
2016,03,19,11,52,12.70
2016,03,19,11,53,12.80
2016,03,19,11,54,12.80
2016,03,19,11,55,12.80
2016,03,19,11,56,12.80
2016,03,19,11,57,12.90
2016,03,19,11,58,13.00
2016,03,19,11,59,13.00
2016,03,19,12,00,12.90
2016,03,19,12,01,12.80
2016,03,19,12,02,12.70
2016,03,19,12,03,12.60
2016,03,19,12,04,12.50
2016,03,19,12,05,12.40
2016,03,19,12,06,12.30
2016,03,19,12,07,12.30
2016,03,19,12,08,12.20
2016,03,19,12,09,12.20
2016,03,19,12,10,12.20
2016,03,19,12,11,12.10
2016,03,19,12,12,12.10
2016,03,19,12,13,12.20
2016,03,19,12,14,12.20
2016,03,19,12,15,12.20
2016,03,19,12,16,12.30
2016,03,19,12,17,12.40
2016,03,19,12,18,12.40
2016,03,19,12,19,12.40
2016,03,19,12,20,12.40
2016,03,19,12,21,12.40
2016,03,19,12,22,12.40
2016,03,19,12,23,12.40
2016,03,19,12,24,12.40
2016,03,19,12,25,12.40
2016,03,19,12,26,12.40
2016,03,19,12,27,12.40
2016,03,19,12,28,12.40
2016,03,19,12,29,12.40
2016,03,19,12,30,12.40
2016,03,19,12,31,12.40
2016,03,19,12,32,12.40
2016,03,19,12,33,12.50
2016,03,19,12,34,12.50
2016,03,19,12,35,12.50
2016,03,19,12,36,12.60
2016,03,19,12,37,12.60
2016,03,19,12,38,12.60
2016,03,19,12,39,12.60
2016,03,19,12,40,12.60
2016,03,19,12,41,12.60
2016,03,19,12,42,12.50
2016,03,19,12,43,12.50
2016,03,19,12,44,12.50
2016,03,19,12,45,12.60
2016,03,19,12,46,12.60
2016,03,19,12,47,12.70
2016,03,19,12,48,12.80
2016,03,19,12,49,12.80
2016,03,19,12,50,12.80
2016,03,19,12,51,12.80
2016,03,19,12,52,12.80
2016,03,19,12,53,12.80
2016,03,19,12,54,12.70
2016,03,19,12,55,12.70
2016,03,19,12,56,12.70
2016,03,19,12,57,12.70
2016,03,19,12,58,12.70
2016,03,19,12,59,12.70
2016,03,19,13,00,12.70
2016,03,19,13,01,12.70
2016,03,19,13,02,12.70
2016,03,19,13,03,12.70
2016,03,19,13,04,12.70
2016,03,19,13,05,12.70
2016,03,19,13,06,12.70
2016,03,19,13,07,12.70
2016,03,19,13,08,12.70
2016,03,19,13,09,12.70
2016,03,19,13,10,12.80
2016,03,19,13,11,12.80
2016,03,19,13,12,12.80
2016,03,19,13,13,12.80
2016,03,19,13,14,12.80
2016,03,19,13,15,12.80
2016,03,19,13,16,12.90
2016,03,19,13,17,12.90
2016,03,19,13,18,12.90
2016,03,19,13,19,12.90
2016,03,19,13,20,12.90
2016,03,19,13,21,13.00
2016,03,19,13,22,13.00
2016,03,19,13,23,13.00
2016,03,19,13,24,13.00
2016,03,19,13,25,13.00
2016,03,19,13,26,13.00
2016,03,19,13,27,13.00
2016,03,19,13,28,13.00
2016,03,19,13,29,13.00
2016,03,19,13,30,13.00
2016,03,19,13,31,13.00
2016,03,19,13,32,13.00
2016,03,19,13,33,13.00
2016,03,19,13,34,12.90
2016,03,19,13,35,13.00
2016,03,19,13,36,12.90
2016,03,19,13,37,12.90
2016,03,19,13,38,12.90
2016,03,19,13,39,13.00
2016,03,19,13,40,13.00
2016,03,19,13,41,13.10
2016,03,19,13,42,13.10
2016,03,19,13,43,13.10
2016,03,19,13,44,13.20
2016,03,19,13,45,13.20
2016,03,19,13,46,13.20
2016,03,19,13,47,13.30
2016,03,19,13,48,13.30
2016,03,19,13,49,13.30
2016,03,19,13,50,13.30
2016,03,19,13,51,13.30
2016,03,19,13,52,13.30
2016,03,19,13,53,13.30
2016,03,19,13,54,13.30
2016,03,19,13,55,13.30
2016,03,19,13,56,13.30
2016,03,19,13,57,13.30
2016,03,19,13,58,13.40
2016,03,19,13,59,13.40
2016,03,19,14,00,13.40
2016,03,19,14,01,13.40
2016,03,19,14,02,13.40
2016,03,19,14,03,13.40
2016,03,19,14,04,13.50
2016,03,19,14,05,13.50
2016,03,19,14,06,13.40
2016,03,19,14,07,13.40
2016,03,19,14,08,13.40
2016,03,19,14,09,13.40
2016,03,19,14,10,13.40
2016,03,19,14,11,13.40
2016,03,19,14,12,13.40
2016,03,19,14,13,13.40
2016,03,19,14,14,13.40
2016,03,19,14,15,13.40
2016,03,19,14,16,13.40
2016,03,19,14,17,13.40
2016,03,19,14,18,13.40
2016,03,19,14,19,13.40
2016,03,19,14,20,13.40
2016,03,19,14,21,13.40
2016,03,19,14,22,13.40
2016,03,19,14,23,13.40
2016,03,19,14,24,13.40
2016,03,19,14,25,13.40
2016,03,19,14,26,13.50
2016,03,19,14,27,13.60
2016,03,19,14,28,13.60
2016,03,19,14,29,13.60
2016,03,19,14,30,13.60
2016,03,19,14,31,13.60
2016,03,19,14,32,13.60
2016,03,19,14,33,13.60
2016,03,19,14,34,13.60
2016,03,19,14,35,13.60
2016,03,19,14,36,13.60
2016,03,19,14,37,13.60
2016,03,19,14,38,13.70
2016,03,19,14,39,13.70
2016,03,19,14,40,13.80
2016,03,19,14,41,13.80
2016,03,19,14,42,13.80
2016,03,19,14,43,13.80
2016,03,19,14,44,13.80
2016,03,19,14,45,13.80
2016,03,19,14,46,13.80
2016,03,19,14,47,13.80
2016,03,19,14,48,13.80
2016,03,19,14,49,13.80
2016,03,19,14,50,13.80
2016,03,19,14,51,13.80
2016,03,19,14,52,13.80
2016,03,19,14,53,13.80
2016,03,19,14,54,13.80
2016,03,19,14,55,13.80
2016,03,19,14,56,13.80
2016,03,19,14,57,13.90
2016,03,19,14,58,13.90
2016,03,19,14,59,13.90
2016,03,19,15,00,13.90
2016,03,19,15,01,13.90
2016,03,19,15,02,13.90
2016,03,19,15,03,13.80
2016,03,19,15,04,13.80
2016,03,19,15,05,13.80
2016,03,19,15,06,13.80
2016,03,19,15,07,13.80
2016,03,19,15,08,13.80
2016,03,19,15,09,13.80
2016,03,19,15,10,13.90
2016,03,19,15,11,13.90
2016,03,19,15,12,13.90
2016,03,19,15,13,13.90
2016,03,19,15,14,13.90
2016,03,19,15,15,13.90
2016,03,19,15,16,13.90
2016,03,19,15,17,13.90
2016,03,19,15,18,13.80
2016,03,19,15,19,13.80
2016,03,19,15,20,13.80
2016,03,19,15,21,13.80
2016,03,19,15,22,13.80
2016,03,19,15,23,13.80
2016,03,19,15,24,13.90
2016,03,19,15,25,13.90
2016,03,19,15,26,13.90
2016,03,19,15,27,13.90
2016,03,19,15,28,13.90
2016,03,19,15,29,13.80
2016,03,19,15,30,13.80
2016,03,19,15,31,13.80
2016,03,19,15,32,13.80
2016,03,19,15,33,13.80
2016,03,19,15,34,13.80
2016,03,19,15,35,13.80
2016,03,19,15,36,13.80
2016,03,19,15,37,13.80
2016,03,19,15,38,13.80
2016,03,19,15,39,13.80
2016,03,19,15,40,13.90
2016,03,19,15,41,13.80
2016,03,19,15,42,13.80
2016,03,19,15,43,13.80
2016,03,19,15,44,13.80
2016,03,19,15,45,13.80
2016,03,19,15,46,13.80
2016,03,19,15,47,13.80
2016,03,19,15,48,13.80
2016,03,19,15,49,13.80
2016,03,19,15,50,13.80
2016,03,19,15,51,13.80
2016,03,19,15,52,13.80
2016,03,19,15,53,13.90
2016,03,19,15,54,13.90
2016,03,19,15,55,13.90
2016,03,19,15,56,13.90
2016,03,19,15,57,13.90
2016,03,19,15,58,13.90
2016,03,19,15,59,13.90
2016,03,19,16,00,13.90
2016,03,19,16,01,13.90
2016,03,19,16,02,13.90
2016,03,19,16,03,13.90
2016,03,19,16,04,13.90
2016,03,19,16,05,13.80
2016,03,19,16,06,13.80
2016,03,19,16,07,13.80
2016,03,19,16,08,13.80
2016,03,19,16,09,13.80
2016,03,19,16,10,13.90
2016,03,19,16,11,13.90
2016,03,19,16,12,14.00
2016,03,19,16,13,14.10
2016,03,19,16,14,14.10
2016,03,19,16,15,14.20
2016,03,19,16,16,14.20
2016,03,19,16,17,14.20
2016,03,19,16,18,14.30
2016,03,19,16,19,14.30
2016,03,19,16,20,14.30
2016,03,19,16,21,14.40
2016,03,19,16,22,14.40
2016,03,19,16,23,14.30
2016,03,19,16,24,14.30
2016,03,19,16,25,14.40
2016,03,19,16,26,14.40
2016,03,19,16,27,14.40
2016,03,19,16,28,14.40
2016,03,19,16,29,14.50
2016,03,19,16,30,14.50
2016,03,19,16,31,14.50
2016,03,19,16,32,14.50
2016,03,19,16,33,14.50
2016,03,19,16,34,14.50
2016,03,19,16,35,14.50
2016,03,19,16,36,14.40
2016,03,19,16,37,14.50
2016,03,19,16,38,14.50
2016,03,19,16,39,14.50
2016,03,19,16,40,14.60
2016,03,19,16,41,14.60
2016,03,19,16,42,14.50
2016,03,19,16,43,14.50
2016,03,19,16,44,14.40
2016,03,19,16,45,14.40
2016,03,19,16,46,14.40
2016,03,19,16,47,14.30
2016,03,19,16,48,14.30
2016,03,19,16,49,14.20
2016,03,19,16,50,14.20
2016,03,19,16,51,14.20
2016,03,19,16,52,14.10
2016,03,19,16,53,14.10
2016,03,19,16,54,14.00
2016,03,19,16,55,14.00
2016,03,19,16,56,14.00
2016,03,19,16,57,13.90
2016,03,19,16,58,13.90
2016,03,19,16,59,13.90
2016,03,19,17,00,14.00
2016,03,19,17,01,14.00
2016,03,19,17,02,14.00
2016,03,19,17,03,14.10
2016,03,19,17,04,14.10
2016,03,19,17,05,14.10
2016,03,19,17,06,14.00
2016,03,19,17,07,14.00
2016,03,19,17,08,14.00
2016,03,19,17,09,14.10
2016,03,19,17,10,14.10
2016,03,19,17,11,14.10
2016,03,19,17,12,14.10
2016,03,19,17,13,14.10
2016,03,19,17,14,14.00
2016,03,19,17,15,14.00
2016,03,19,17,16,14.00
2016,03,19,17,17,14.00
2016,03,19,17,18,14.00
2016,03,19,17,19,14.00
2016,03,19,17,20,14.00
2016,03,19,17,21,14.00
2016,03,19,17,22,13.90
2016,03,19,17,23,13.90
2016,03,19,17,24,13.90
2016,03,19,17,25,13.90
2016,03,19,17,26,13.90
2016,03,19,17,27,13.90
2016,03,19,17,28,13.90
2016,03,19,17,29,13.90
2016,03,19,17,30,13.90
2016,03,19,17,31,13.90
2016,03,19,17,32,14.00
2016,03,19,17,33,14.00
2016,03,19,17,34,14.00
2016,03,19,17,35,14.10
2016,03,19,17,36,14.10
2016,03,19,17,37,14.10
2016,03,19,17,38,14.10
2016,03,19,17,39,14.10
2016,03,19,17,40,14.10
2016,03,19,17,41,14.10
2016,03,19,17,42,14.10
2016,03,19,17,43,14.10
2016,03,19,17,44,14.10
2016,03,19,17,45,14.10
2016,03,19,17,46,14.10
2016,03,19,17,47,14.10